Regional Weather Roundup
Issued by NWS

Home | Current Version | Previous Version | Graphics & Text | Print | Product List | Glossary On
Versions: 1 2 3 4 5 6 7 8 9 10 11 12 13 14 15 16 17 18 19 20 21 22 23 24 25 26 27 28 29 30 31 32 33 34 35 36 37 38 39 40 41 42 43 44 45 46 47 48 49 50
000
ASUS43 KLSX 250710
RWRMO

WEATHER SUMMARY FOR MISSOURI
NATIONAL WEATHER SERVICE SPRINGFIELD MO
200 AM CDT SAT MAR 25 2017

NOTE: "FAIR" INDICATES FEW OR NO CLOUDS BELOW 12,000 FEET WITH NO
       SIGNIFICANT WEATHER AND/OR OBSTRUCTIONS TO VISIBILITY.
       CURRENT SKY AND/OR WEATHER CONDITIONS ARE NOT AVAILABLE FOR
       CHILLICOTHE AND FARMINGTON.

MOZ001>031-035>038-043-044-053-054-250800-
...NORTHERN AND WESTERN MISSOURI...

CITY           SKY/WX    TMP DP  RH WIND       PRES   REMARKS
KANSAS CTY INT LGT RAIN  52  52 100 N13       29.76F FOG
KANSAS C DTWN  CLOUDY    58  57  97 CALM      29.75F
LEE`S SUMMIT   CLOUDY    57  52  83 SE12      29.77F
ST JOSEPH      RAIN      48  48 100 N10       29.81F FOG
CHILLICOTHE      N/A     57  54  89 NE5       29.81F
KIRKSVILLE     CLOUDY    56  55  97 E12       29.84F FOG

$$
MOZ066>068-077>081-088>096-101>105-250800-
...SOUTHWEST MISSOURI...

CITY           SKY/WX    TMP DP  RH WIND       PRES   REMARKS
SPRINGFIELD    MOCLDY    54  50  86 S16       29.77F
JOPLIN         CLOUDY    58  54  86 W5        29.78S
BRANSON        CLOUDY    54  52  94 SE12      29.81F

$$
MOZ032>034-039>042-045>050-055>058-069>072-250800-
...CENTRAL MISSOURI...

CITY           SKY/WX    TMP DP  RH WIND       PRES   REMARKS
COLUMBIA       CLOUDY    56  56 100 SE5       29.82F
JEFFERSON CITY CLOUDY    58  54  86 E3        29.82F
ROLLA          CLOUDY    53  52  96 SE12      29.82F
SEDALIA        CLOUDY    56  48  74 SE7       29.79F
WHITEMAN AFB   CLOUDY    55  52  90 S5        29.78F
WARRENSBURG    CLOUDY    54  48  82 CALM      29.79S
OSAGE BEACH    LGT RAIN N/A N/A N/A SE8       29.81S

$$
MOZ051-052-059>065-250800-
...EAST CENTRAL MISSOURI...

CITY           SKY/WX    TMP DP  RH WIND       PRES   REMARKS
ST LOUIS INTL  LGT RAIN  61  57  87 CALM      29.86F
SPIRIT OF STL  LGT RAIN  58  58 100 NE5       29.85F
ST CHARLES     LGT RAIN  58  58 100 N3        29.87F

$$
MOZ072>076-082>087-097>100-106>115-250800-
...SOUTH CENTRAL AND SOUTHEAST MISSOURI...

CITY           SKY/WX    TMP DP  RH WIND       PRES   REMARKS
CAPE GIRARDEAU CLOUDY    66  56  70 SE18G26   29.88F
FARMINGTON     RAIN      56  55  97 W6        29.88F
POPLAR BLUFF   RAIN      57  55  93 W10       29.93R FOG
WEST PLAINS    LGT RAIN  53  51  93 NE16      29.79F

$$



USA.gov is the U.S. government's official web portal to all federal, state and local government web resources and services.